Location: Dana
(41.8364°N, 106.7042°W)
Time: 20:45:02
(UTC+00:00)

Injun/Solrad 3 - Pass Details

Date: 13 May 2026
Orbit: 867 x 989 km, 66.8° (Epoch: 6 June)

Event Time Altitude Azimuth Distance (km) Brightness Sun altitude
Rises 01:26:37 0° 271° (W) 3,551 12.7 7.9°
Reaches altitude 10° 01:30:29 10° 295° (WNW) 2,640 13.0 7.2°
Maximum altitude 01:33:41 14° 327° (NNW) 2,362 11.0 6.7°
Drops below altitude 10° 01:36:57 10° 359° (N) 2,689 10.6 6.1°
Sets 01:40:58 0° 23° (NNE) 3,663 11.0 5.4°
